Location: Ferma
(41.9500°N, 44.5167°E)
Time: 19:45:48
(UTC+00:00)

FENGYUN 1C DEB - Pass Details

Date: 20 August 2022
Orbit: 606 x 930 km, 99.7° (Epoch: 01 October)

Event Time Altitude Azimuth Distance (km) Brightness Sun altitude
Exits shadow 19:30:55 13° 252° (WSW) 2,169 ? -31.6°
Maximum altitude 19:32:25 15° 271° (W) 2,110 ? -31.7°
Drops below altitude 10° 19:35:27 10° 304° (NW) 2,497 ? -32.0°
Sets 19:39:05 0° 327° (NNW) 3,498 ? -32.3°
